2023/03/28 00:00:00, 0.0, 3.7
2023/03/28 00:10:00, 0.0, 3.2
2023/03/28 00:20:00, 0.0, 3.1
2023/03/28 00:30:00, 0.0, 3.3
2023/03/28 00:40:00, 0.0, 3.3
2023/03/28 00:50:00, 0.0, 3.2
2023/03/28 01:00:00, 0.0, 2.9
2023/03/28 01:10:00, 0.0, 2.7
2023/03/28 01:20:00, 0.0, 2.4
2023/03/28 01:30:00, 0.0, 2.6
2023/03/28 01:40:00, 0.0, 2.4
2023/03/28 01:50:00, 0.0, 3.1
2023/03/28 02:00:00, 0.0, 2.5
2023/03/28 02:10:00, 0.0, 2.7
2023/03/28 02:20:00, 0.0, 2.5
2023/03/28 02:30:00, 0.0, 3.3
2023/03/28 02:40:00, 0.0, 3.0
2023/03/28 02:50:00, 0.0, 3.0
2023/03/28 03:00:00, 0.0, 2.8
2023/03/28 03:10:00, 0.0, 2.2
2023/03/28 03:20:00, 0.0, 2.4
2023/03/28 03:30:00, 0.0, 2.5
2023/03/28 03:40:00, 0.0, 2.7
2023/03/28 03:50:00, 0.2, 2.2
2023/03/28 04:00:00, 0.2, 2.3
2023/03/28 04:10:00, 0.2, 2.2
2023/03/28 04:20:00, 0.1, 2.4
2023/03/28 04:30:00, 0.1, 2.2
2023/03/28 04:40:00, 0.1, 2.2
2023/03/28 04:50:00, 0.1, 2.2
2023/03/28 05:00:00, 0.1, 2.4
2023/03/28 05:10:00, 0.0, 2.8
2023/03/28 05:20:00, 0.0, 2.8
2023/03/28 05:30:00, 0.0, 3.2
2023/03/28 05:40:00, 0.0, 3.4
2023/03/28 05:50:00, 0.0, 3.6
2023/03/28 06:00:00, 0.1, 4.7
2023/03/28 06:10:00, 0.1, 4.6
2023/03/28 06:20:00, 0.1, 5.4
2023/03/28 06:30:00, 0.1, 5.1
2023/03/28 06:40:00, 0.0, 5.0
2023/03/28 06:50:00, 0.0, 5.0
2023/03/28 07:00:00, 0.0, 5.7
2023/03/28 07:10:00, 0.0, 5.9
2023/03/28 07:20:00, 0.0, 6.8
2023/03/28 07:30:00, 0.0, 9.2
2023/03/28 07:40:00, 0.0,11.3
2023/03/28 07:50:00, 0.0,12.1
2023/03/28 08:00:00, 0.0,12.8
2023/03/28 08:10:00, 0.0,14.9
2023/03/28 08:20:00, 0.0,14.7
2023/03/28 08:30:00, 0.0,15.7
2023/03/28 08:40:00, 0.0,16.2
2023/03/28 08:50:00, 0.0,16.7
2023/03/28 09:00:00, 0.0,17.8
2023/03/28 09:10:00, 0.0,17.3
2023/03/28 09:20:00, 0.0,16.6
2023/03/28 09:30:00, 0.0,17.0
2023/03/28 09:40:00, 0.0,14.5
2023/03/28 09:50:00, 0.0,17.0
2023/03/28 10:00:00, 0.0,15.4
2023/03/28 10:10:00, 0.0,16.2
2023/03/28 10:20:00, 0.0,16.7
2023/03/28 10:30:00, 0.0,16.7
2023/03/28 10:40:00, 0.0,16.0
2023/03/28 11:00:00, 0.0,16.5
2023/03/28 12:50:00, 0.0,17.3
2023/03/28 13:00:00, 0.0,17.1
2023/03/28 13:10:00, 0.0,17.5
2023/03/28 13:20:00, 0.0,17.5
2023/03/28 13:30:00, 0.0,17.4
2023/03/28 13:40:00, 0.0,17.6
2023/03/28 13:50:00, 0.0,17.4
2023/03/28 14:00:00, 0.0,17.2
2023/03/28 14:10:00, 0.0,17.4
2023/03/28 14:20:00, 0.0,17.4
2023/03/28 14:30:00, 0.0,17.4
2023/03/28 14:40:00, 0.0,17.2
2023/03/28 14:50:00, 0.0,17.2
2023/03/28 15:00:00, 0.0,17.0
2023/03/28 15:10:00, 0.0,17.0
2023/03/28 15:20:00, 0.0,17.4
2023/03/28 15:30:00, 0.0,17.0
2023/03/28 15:40:00, 0.0,17.1
2023/03/28 15:50:00, 0.0,16.8
2023/03/28 16:00:00, 0.0,17.4
2023/03/28 16:10:00, 0.0,17.1
2023/03/28 16:20:00, 0.0,17.3
2023/03/28 16:30:00, 0.0,18.4
2023/03/28 16:40:00, 0.0,19.9
2023/03/28 16:50:00, 0.0,20.7
2023/03/28 17:00:00, 0.0,20.4
2023/03/28 17:10:00, 0.0,20.2
2023/03/28 17:20:00, 0.0,19.4
2023/03/28 17:30:00, 0.0,18.4
2023/03/28 17:40:00, 0.0,17.3
2023/03/28 17:50:00, 0.0,14.3
2023/03/28 18:00:00, 0.0,11.6
2023/03/28 18:10:00, 0.0,10.5
2023/03/28 18:20:00, 0.0, 9.4
2023/03/28 18:30:00, 0.0, 9.0
2023/03/28 18:40:00, 0.0, 8.2
2023/03/28 18:50:00, 0.0, 7.8
2023/03/28 19:00:00, 0.0, 7.6
2023/03/28 19:10:00, 0.0, 7.1
2023/03/28 19:20:00, 0.0, 7.1
2023/03/28 19:30:00, 0.0, 6.8
2023/03/28 19:40:00, 0.0, 6.7
2023/03/28 19:50:00, 0.0, 6.8
2023/03/28 20:00:00, 0.0, 6.2
2023/03/28 20:10:00, 0.0, 6.0
2023/03/28 20:20:00, 0.0, 6.0
2023/03/28 20:30:00, 0.0, 6.0
2023/03/28 20:40:00, 0.0, 5.4
2023/03/28 20:50:00, 0.0, 5.6
2023/03/28 21:00:00, 0.0, 4.9
2023/03/28 21:10:00, 0.0, 5.0
2023/03/28 21:20:00, 0.0, 5.3
2023/03/28 21:30:00, 0.0, 5.2
2023/03/28 21:40:00, 0.0, 4.6
2023/03/28 21:50:00, 0.0, 4.5
2023/03/28 22:00:00, 0.0, 4.9
2023/03/28 22:10:00, 0.0, 4.6
2023/03/28 22:20:00, 0.0, 4.4
2023/03/28 22:30:00, 0.0, 3.7
2023/03/28 22:40:00, 0.0, 4.4
2023/03/28 22:50:00, 0.0, 4.1
2023/03/28 23:00:00, 0.0, 4.4
2023/03/28 23:10:00, 0.0, 4.5
2023/03/28 23:20:00, 0.0, 4.1
2023/03/28 23:30:00, 0.0, 3.8
2023/03/28 23:40:00, 0.0, 4.2
2023/03/28 23:50:00, 0.0, 4.4
